TimeEDT,TemperatureF,Dew PointF,Humidity,Sea Level PressureIn,VisibilityMPH,Wind Direction,Wind SpeedMPH,Gust SpeedMPH,PrecipitationIn,Events,Conditions,WindDirDegrees,DateUTC
12:15 AM,41.9,39.4,91,30.33,10.0,Calm,Calm,-,N/A,,Clear,0,2013-05-25 04:15:00
12:35 AM,43.2,40.8,91,30.33,10.0,Calm,Calm,-,N/A,,Clear,0,2013-05-25 04:35:00
12:55 AM,41.9,39.4,91,30.34,10.0,Calm,Calm,-,N/A,,Clear,0,2013-05-25 04:55:00
1:15 AM,41.0,39.2,93,30.34,10.0,Calm,Calm,-,N/A,,Clear,0,2013-05-25 05:15:00
1:35 AM,39.7,38.5,95,30.33,10.0,Calm,Calm,-,N/A,,Clear,0,2013-05-25 05:35:00
1:55 AM,39.6,38.8,97,30.35,10.0,NE,3.5,-,N/A,,Clear,40,2013-05-25 05:55:00
2:15 AM,39.7,39.2,98,30.35,10.0,Calm,Calm,-,N/A,,Clear,0,2013-05-25 06:15:00
2:34 AM,39.2,38.5,97,30.35,10.0,ESE,3.5,-,N/A,,Clear,110,2013-05-25 06:34:00
2:55 AM,39.2,38.5,97,30.35,10.0,East,3.5,-,N/A,,Clear,100,2013-05-25 06:55:00
3:15 AM,37.6,36.9,97,30.34,10.0,ESE,6.9,-,N/A,,Clear,120,2013-05-25 07:15:00
3:35 AM,39.0,38.3,97,30.34,10.0,SE,5.8,-,N/A,,Clear,140,2013-05-25 07:35:00
3:55 AM,38.1,37.6,98,30.34,10.0,Calm,Calm,-,N/A,,Clear,0,2013-05-25 07:55:00
4:15 AM,38.3,37.4,97,30.34,10.0,SE,3.5,-,N/A,,Clear,130,2013-05-25 08:15:00
4:35 AM,37.6,37.0,98,30.33,10.0,Calm,Calm,-,N/A,,Clear,0,2013-05-25 08:35:00
4:55 AM,37.4,36.7,97,30.33,10.0,SE,3.5,-,N/A,,Clear,130,2013-05-25 08:55:00
5:15 AM,37.6,37.0,98,30.33,10.0,ESE,3.5,-,N/A,,Clear,110,2013-05-25 09:15:00
5:35 AM,38.3,37.4,97,30.33,10.0,Calm,Calm,-,N/A,,Clear,0,2013-05-25 09:35:00
5:55 AM,37.6,36.9,97,30.33,10.0,Calm,Calm,-,N/A,,Clear,0,2013-05-25 09:55:00
6:15 AM,37.0,36.1,97,30.34,10.0,Calm,Calm,-,N/A,,Clear,0,2013-05-25 10:15:00
6:35 AM,37.4,36.5,97,30.34,10.0,Calm,Calm,-,N/A,,Clear,0,2013-05-25 10:35:00
6:55 AM,38.3,37.4,97,30.35,10.0,Calm,Calm,-,N/A,,Clear,0,2013-05-25 10:55:00
7:15 AM,39.7,38.7,96,30.35,10.0,Calm,Calm,-,N/A,,Clear,0,2013-05-25 11:15:00
7:35 AM,41.5,40.1,95,30.36,10.0,Calm,Calm,-,N/A,,Clear,0,2013-05-25 11:35:00
7:55 AM,42.8,40.5,91,30.37,10.0,Calm,Calm,-,N/A,,Clear,0,2013-05-25 11:55:00
8:15 AM,44.2,40.5,87,30.38,10.0,Calm,Calm,-,N/A,,Clear,0,2013-05-25 12:15:00
8:35 AM,45.9,39.7,79,30.39,10.0,Calm,Calm,-,N/A,,Clear,0,2013-05-25 12:35:00
8:54 AM,47.5,38.1,70,30.39,10.0,Calm,Calm,-,N/A,,Clear,0,2013-05-25 12:54:00
9:15 AM,50.2,39.0,66,30.40,10.0,Calm,Calm,-,N/A,,Clear,0,2013-05-25 13:15:00
9:35 AM,51.6,34.2,51,30.40,10.0,SE,4.6,-,N/A,,Clear,130,2013-05-25 13:35:00
9:54 AM,52.5,32.7,47,30.40,10.0,SSE,3.5,-,N/A,,Clear,160,2013-05-25 13:54:00
10:15 AM,53.4,33.4,47,30.40,10.0,East,4.6,-,N/A,,Clear,100,2013-05-25 14:15:00
10:35 AM,54.0,33.4,46,30.39,10.0,ENE,6.9,-,N/A,,Clear,60,2013-05-25 14:35:00
10:54 AM,54.9,33.6,45,30.38,10.0,Calm,Calm,-,N/A,,Clear,0,2013-05-25 14:54:00
11:15 AM,56.5,35.4,45,30.38,10.0,NE,4.6,-,N/A,,Clear,50,2013-05-25 15:15:00
11:35 AM,56.3,34.3,44,30.38,10.0,Calm,Calm,-,N/A,,Clear,0,2013-05-25 15:35:00
11:55 AM,57.4,35.4,44,30.38,10.0,East,4.6,-,N/A,,Clear,100,2013-05-25 15:55:00
12:15 PM,57.4,34.3,42,30.38,10.0,Calm,Calm,-,N/A,,Clear,0,2013-05-25 16:15:00
12:35 PM,56.8,33.8,42,30.38,10.0,Calm,Calm,-,N/A,,Clear,0,2013-05-25 16:35:00
12:55 PM,58.5,33.3,39,30.37,10.0,NNW,6.9,-,N/A,,Clear,330,2013-05-25 16:55:00
1:15 PM,59.9,34.0,38,30.37,10.0,NNE,3.5,-,N/A,,Clear,30,2013-05-25 17:15:00
1:34 PM,59.5,36.0,41,30.36,10.0,Calm,Calm,-,N/A,,Scattered Clouds,0,2013-05-25 17:34:00
1:55 PM,59.9,35.6,40,30.36,10.0,NNE,6.9,-,N/A,,Scattered Clouds,20,2013-05-25 17:55:00
2:15 PM,61.0,35.6,39,30.36,10.0,Calm,Calm,-,N/A,,Clear,0,2013-05-25 18:15:00
2:34 PM,62.1,36.1,38,30.35,10.0,NNW,3.5,-,N/A,,Clear,330,2013-05-25 18:34:00
2:55 PM,61.5,35.6,38,30.35,10.0,Calm,Calm,-,N/A,,Clear,0,2013-05-25 18:55:00
3:15 PM,61.7,36.0,38,30.34,10.0,ENE,6.9,-,N/A,,Clear,70,2013-05-25 19:15:00
3:35 PM,61.3,34.2,36,30.33,10.0,NNE,4.6,-,N/A,,Clear,30,2013-05-25 19:35:00
3:55 PM,61.5,35.4,38,30.33,10.0,NW,4.6,-,N/A,,Clear,320,2013-05-25 19:55:00
4:14 PM,61.2,36.0,39,30.33,10.0,ENE,3.5,-,N/A,,Clear,70,2013-05-25 20:14:00
4:35 PM,61.2,36.3,40,30.33,10.0,North,3.5,-,N/A,,Clear,360,2013-05-25 20:35:00
4:55 PM,61.3,36.5,40,30.32,10.0,NNE,5.8,-,N/A,,Clear,30,2013-05-25 20:55:00
5:15 PM,61.7,37.8,41,30.31,10.0,ENE,5.8,-,N/A,,Clear,60,2013-05-25 21:15:00
5:35 PM,61.9,37.9,41,30.30,10.0,ENE,5.8,-,N/A,,Clear,60,2013-05-25 21:35:00
5:55 PM,62.2,37.6,40,30.30,10.0,North,6.9,-,N/A,,Clear,360,2013-05-25 21:55:00
6:15 PM,60.6,36.5,41,30.30,10.0,North,5.8,-,N/A,,Clear,10,2013-05-25 22:15:00
6:35 PM,61.0,35.8,39,30.30,10.0,NNE,8.1,-,N/A,,Clear,30,2013-05-25 22:35:00
6:55 PM,60.8,34.7,38,30.30,10.0,NNE,5.8,-,N/A,,Clear,30,2013-05-25 22:55:00
7:15 PM,59.9,34.3,38,30.30,10.0,NE,8.1,-,N/A,,Clear,40,2013-05-25 23:15:00
7:34 PM,59.0,31.8,36,30.31,10.0,NE,4.6,-,N/A,,Clear,40,2013-05-25 23:34:00
7:55 PM,58.3,31.8,37,30.31,10.0,Calm,Calm,-,N/A,,Clear,0,2013-05-25 23:55:00
8:15 PM,57.4,31.3,37,30.30,10.0,Calm,Calm,-,N/A,,Clear,0,2013-05-26 00:15:00
8:34 PM,56.7,31.3,38,30.29,10.0,Calm,Calm,-,N/A,,Clear,0,2013-05-26 00:34:00
8:55 PM,56.1,34.5,44,30.29,10.0,Calm,Calm,-,N/A,,Clear,0,2013-05-26 00:55:00
9:15 PM,53.8,34.9,49,30.29,10.0,Calm,Calm,-,N/A,,Clear,0,2013-05-26 01:15:00
9:34 PM,52.3,35.4,53,30.29,10.0,Calm,Calm,-,N/A,,Clear,0,2013-05-26 01:34:00
9:55 PM,49.6,36.9,61,30.30,10.0,Calm,Calm,-,N/A,,Clear,0,2013-05-26 01:55:00
10:15 PM,48.9,37.0,64,30.30,10.0,Calm,Calm,-,N/A,,Clear,0,2013-05-26 02:15:00
10:34 PM,50.0,37.2,62,30.31,10.0,Calm,Calm,-,N/A,,Clear,0,2013-05-26 02:34:00
10:55 PM,47.3,38.3,71,30.31,10.0,Calm,Calm,-,N/A,,Clear,0,2013-05-26 02:55:00
11:15 PM,44.4,36.9,75,30.32,10.0,Calm,Calm,-,N/A,,Clear,0,2013-05-26 03:15:00
11:35 PM,44.2,38.8,81,30.32,10.0,NE,3.5,-,N/A,,Clear,50,2013-05-26 03:35:00
11:55 PM,46.0,38.7,75,30.32,10.0,NE,5.8,-,N/A,,Clear,50,2013-05-26 03:55:00